Content
SEND FEEDBACK

Daily
Averages
Monthly
Summary
United States of America

PANHANDLE, TEXAS


Home > North America > United States > Texas
Elevation: 3457 feet     Latitude: 35 21N     Longitude: 101 23W

WEATHER
 
SELECT A DAY
Number of Records: 198,265;   Date Range: 1/1/95 - 9/29/14
 
SHARE

PRINT THIS DATA

[ ← Previous Day ]
WEATHER ALMANAC - FEBRUARY 13, 2013
[ Next Day → ]
[ °C ]   °F
Weather ElementAverageHighLow
Temperature31.6 °F44.1 °F (3:53 pm)16 °F (4:53 am)
Dewpoint21.2 °F27 °F (1:53 pm)12 °F (4:53 am)
Humidity67.1 %85 % (1:53 am)47 % (2:53 pm)
Barometer30.06 in30.12 in (1:53 am)29.99 in (3:53 pm)
Wind Speed5.6 mph10.4 mph (3:53 pm)
Weather ElementAverage
Visibility10 mi
Wind DirectionSSE (173.9 °)

Weather ElementTotal
Precipitation---
Heating Degree Days35 (Base 65)
Averaged from 23 records on February 13, 2013
WEATHER CONDITIONS BREAKOUT
WIND DIRECTION BREAKOUT
WEATHER BY HOUR - FEBRUARY 13, 2013
[ °C ]   °F
Local TimeTemperatureDewpointHumidityBarometerVisibilityWind DirectionWind SpeedGust SpeedPrecipitationEventsConditions
1:53 AM21.0 °F17.1 °F85 %30.12 in10.0 miWSW (240°)6.9 mphClear
2:53 AM21.9 °F18.0 °F85 %30.11 in10.0 miWSW (250°)5.8 mphClear
3:53 AM21.9 °F17.1 °F82 %30.09 in10.0 miSW (230°)6.9 mphClear
4:53 AM16.0 °F12.0 °F84 %30.09 in10.0 miSW (220°)8.1 mphClear
5:53 AM18.0 °F12.9 °F81 %30.09 in10.0 miWSW (250°)6.9 mphClear
6:53 AM23.0 °F15.1 °F72 %30.09 in10.0 miWest (260°)4.6 mphClear
7:53 AM18.0 °F12.9 °F81 %30.12 in10.0 miWSW (240°)4.6 mphClear
8:53 AM21.0 °F17.1 °F85 %30.12 in10.0 miWest (260°)3.5 mphClear
9:53 AM28.9 °F21.9 °F75 %30.12 in10.0 miCalmClear
10:53 AM35.1 °F24.1 °F64 %30.10 in10.0 miCalmClear
11:53 AM37.0 °F25.0 °F62 %30.09 in10.0 miSSW (200°)5.8 mphClear
12:53 PM41.0 °F26.1 °F55 %30.07 in10.0 miSW (220°)5.8 mphClear
1:53 PM41.0 °F27.0 °F57 %30.04 in10.0 miNorth (10°)3.5 mphClear
2:53 PM43.0 °F24.1 °F47 %30.00 in10.0 miSouth (190°)5.8 mphClear
3:53 PM44.1 °F26.1 °F49 %29.99 in10.0 miSouth (190°)10.4 mphClear
4:53 PM44.1 °F27.0 °F51 %30.01 in10.0 miSouth (180°)10.4 mphClear
5:53 PM43.0 °F25.0 °F49 %29.99 in10.0 miSouth (170°)8.1 mphClear
6:53 PM37.0 °F26.1 °F65 %30.01 in10.0 miSE (130°)4.6 mphClear
7:53 PM35.1 °F25.0 °F67 %30.04 in10.0 miEast (90°)4.6 mphClear
8:53 PM33.1 °F24.1 °F70 %30.04 in10.0 miESE (120°)3.5 mphClear
9:53 PM34.0 °F21.9 °F61 %30.02 in10.0 miSouth (170°)10.4 mphClear
10:53 PM34.0 °F21.0 °F59 %30.02 in10.0 miSSW (200°)5.8 mphClear
11:53 PM36.0 °F21.9 °F57 %30.01 in10.0 miSouth (180°)3.5 mphClear
Hourly data recorded from KAMA, located miles away from Panhandle, Texas







STORIES FROM OUR PARTNERS